Location: *
(51.1248°S, 108.4023°W)
Time: 05:34:42
(UTC+00:00)

APEX - Visible Passes

Search period start: 18 October 2021 00:00
Search period end: 28 October 2021 00:00
Orbit: 330 x 1062 km, 69.9° (Epoch: 16 October)

Date Brightness Start Highest point End Pass type
(mag) Time Alt. Az. Time Alt. Az. Time Alt. Az.
18 Oct 6.9 03:55:26 10° SW 03:57:10 12° SSW 03:59:02 10° S visible
18 Oct 6.8 07:20:09 10° SSW 07:23:57 19° SSE 07:28:10 10° ESE visible
18 Oct 5.1 09:00:28 10° SSW 09:06:05 55° SE 09:12:37 10° NE visible
18 Oct 4.9 10:41:37 10° SW 10:47:07 39° WNW 10:53:17 10° N visible
19 Oct 6.5 02:54:24 10° WSW 02:57:17 18° SSW 03:00:37 10° SSE visible
19 Oct 7.1 06:21:35 10° S 06:24:03 13° SSE 06:26:41 10° SE visible
19 Oct 6.0 08:01:42 10° SSW 08:06:46 32° SE 08:12:34 10° ENE visible
19 Oct 4.4 09:42:23 10° SW 09:48:16 74° WNW 09:55:02 10° NNE visible
19 Oct 5.8 11:24:49 10° WSW 11:28:40 17° W 11:32:47 10° NW visible
20 Oct 6.9 03:38:44 10° SW 03:40:23 12° SSW 03:42:09 10° S visible
20 Oct 7.2 05:23:17 10° S 05:23:56 10° S 05:24:36 10° SSE visible
20 Oct 6.6 07:02:58 10° SSW 07:07:08 21° SE 07:11:46 10° E visible
20 Oct 4.8 08:43:23 10° SSW 08:49:11 62° SE 08:55:52 10° NE visible
20 Oct 5.1 10:24:41 10° SW 10:30:06 34° WNW 10:36:05 10° N visible
21 Oct 6.6 02:37:31 10° WSW 02:40:22 17° SSW 02:43:35 10° SSE visible
21 Oct 7.0 06:04:15 10° S 06:07:12 14° SSE 06:10:22 10° SE visible
21 Oct 5.8 07:44:29 10° SSW 07:49:49 36° SE 07:55:53 10° ENE visible
21 Oct 4.4 09:25:17 10° SW 09:31:14 65° WNW 09:37:58 10° NNE visible
21 Oct 6.0 11:08:08 10° WSW 11:11:29 15° W 11:15:00 10° NW visible
22 Oct 6.9 03:21:50 10° SSW 03:23:26 11° SSW 03:25:08 10° S visible
22 Oct 7.0 05:05:31 10° S 05:07:01 11° SSE 05:08:34 10° SSE visible
22 Oct 6.4 06:45:39 10° SSW 06:50:08 23° SE 06:55:09 10° E visible
22 Oct 4.7 08:26:08 10° SSW 08:32:06 71° SE 08:38:50 10° NE visible
22 Oct 5.3 10:07:37 10° SW 10:12:54 30° WNW 10:17:24 15° NNW visible
23 Oct 7.1 04:06:24 10° S 04:06:41 10° S 04:06:57 10° S visible
23 Oct 6.8 05:46:49 10° S 05:50:10 16° SSE 05:53:49 10° ESE visible
23 Oct 5.6 07:27:08 10° SSW 07:32:41 41° SE 07:38:59 10° ENE visible
23 Oct 4.6 09:08:02 10° SW 09:14:01 57° WNW 09:17:47 26° N visible
23 Oct 6.2 10:51:28 10° WSW 10:54:06 13° W 10:56:25 11° WNW visible
24 Oct 6.9 03:04:43 10° SSW 03:06:19 11° SSW 03:08:00 10° S visible
24 Oct 7.0 04:47:53 10° S 04:49:55 12° SSE 04:52:04 10° SE visible
24 Oct 6.3 06:28:11 10° SSW 06:32:59 25° SE 06:38:20 10° E visible
24 Oct 4.5 08:08:45 10° SSW 08:14:50 80° ESE 08:18:44 27° NE visible
24 Oct 5.5 09:50:24 10° SW 09:55:31 27° WNW 09:57:23 23° NW visible
25 Oct 7.0 03:48:29 10° S 03:49:30 10° S 03:50:33 10° SSE visible
25 Oct 6.7 05:29:13 10° SSW 05:32:57 17° SSE 05:37:02 10° ESE visible
25 Oct 5.3 07:09:37 10° SSW 07:15:23 46° SE 07:19:57 19° ENE visible
25 Oct 4.7 08:50:37 10° SW 08:56:36 51° WNW 08:58:37 39° NNW visible
25 Oct 6.3 10:35:04 10° W 10:36:33 11° W 10:37:17 11° WNW visible
26 Oct 6.9 02:47:25 10° SSW 02:49:03 11° S 02:50:46 10° S visible
26 Oct 6.9 04:30:10 10° S 04:32:39 13° SSE 04:35:18 10° SE visible
26 Oct 6.1 06:10:34 10° SSW 06:15:37 28° SE 06:21:17 10° E visible
26 Oct 4.5 07:51:12 10° SSW 07:57:24 89° ESE 08:00:00 41° NNE visible
26 Oct 5.7 09:33:04 10° SW 09:37:57 23° WNW 09:38:41 23° WNW visible
27 Oct 6.9 03:30:41 10° S 03:32:10 11° S 03:33:43 10° SSE visible
27 Oct 6.6 05:11:29 10° SSW 05:15:34 19° SSE 05:20:02 10° ESE visible
27 Oct 5.1 06:51:57 10° SSW 06:57:55 51° SE 07:01:29 27° ENE visible
27 Oct 4.9 08:33:04 10° SW 08:39:01 45° WNW 08:40:11 41° NW visible
